TimeEST,TemperatureF,Dew PointF,Humidity,Sea Level PressureIn,VisibilityMPH,Wind Direction,Wind SpeedMPH,Gust SpeedMPH,PrecipitationIn,Events,Conditions,WindDirDegrees,DateUTC
12:15 AM,46.4,46.4,100,30.46,10.0,North,9.2,-,0.00,,Partly Cloudy,10,2013-01-19 05:15:00
12:35 AM,46.4,46.4,100,30.46,10.0,North,12.7,18.4,0.00,,Clear,360,2013-01-19 05:35:00
12:55 AM,46.4,46.4,100,30.46,10.0,North,10.4,16.1,0.00,,Partly Cloudy,360,2013-01-19 05:55:00
1:15 AM,46.4,46.4,100,30.46,10.0,North,12.7,-,0.00,,Partly Cloudy,360,2013-01-19 06:15:00
1:35 AM,46.4,46.4,100,30.46,10.0,North,10.4,-,0.00,,Clear,360,2013-01-19 06:35:00
1:55 AM,46.4,46.4,100,30.45,10.0,North,12.7,-,0.00,,Clear,360,2013-01-19 06:55:00
2:15 AM,46.4,46.4,100,30.45,10.0,North,12.7,18.4,0.00,,Clear,360,2013-01-19 07:15:00
2:35 AM,46.4,46.4,100,30.44,10.0,North,11.5,-,0.00,,Clear,10,2013-01-19 07:35:00
2:55 AM,46.4,46.4,100,30.44,10.0,North,13.8,-,0.00,,Clear,360,2013-01-19 07:55:00
3:15 AM,46.4,46.4,100,30.44,10.0,North,12.7,-,0.00,,Clear,360,2013-01-19 08:15:00
3:35 AM,46.4,46.4,100,30.44,10.0,North,12.7,19.6,0.00,,Clear,10,2013-01-19 08:35:00
3:55 AM,46.4,46.4,100,30.43,10.0,North,10.4,-,0.00,,Clear,360,2013-01-19 08:55:00
4:15 AM,46.4,46.4,100,30.43,10.0,North,13.8,18.4,0.00,,Clear,10,2013-01-19 09:15:00
4:35 AM,46.4,46.4,100,30.43,10.0,North,11.5,-,0.00,,Clear,360,2013-01-19 09:35:00
4:55 AM,44.6,44.6,100,30.43,10.0,North,9.2,-,0.00,,Clear,10,2013-01-19 09:55:00
5:15 AM,44.6,44.6,100,30.43,10.0,North,9.2,17.3,0.00,,Clear,10,2013-01-19 10:15:00
5:35 AM,44.6,44.6,100,30.42,10.0,North,12.7,-,0.00,,Clear,10,2013-01-19 10:35:00
7:50 AM,46.4,35.6,66,30.44,10.0,NNE,9.2,-,N/A,,Mostly Cloudy,30,2013-01-19 12:50:00
8:50 AM,48.2,35.6,62,30.46,10.0,NNE,9.2,-,N/A,,Mostly Cloudy,30,2013-01-19 13:50:00
9:50 AM,50.0,35.6,58,30.47,10.0,NNE,11.5,17.3,N/A,,Mostly Cloudy,20,2013-01-19 14:50:00
10:50 AM,51.8,37.4,58,30.46,10.0,NNE,9.2,-,N/A,,Mostly Cloudy,20,2013-01-19 15:50:00
11:50 AM,55.4,42.8,63,30.42,10.0,NNE,10.4,-,N/A,,Partly Cloudy,20,2013-01-19 16:50:00
12:54 PM,57.2,46.4,67,30.36,10.0,East,6.9,-,N/A,,Clear,80,2013-01-19 17:54:00
1:50 PM,57.2,48.2,72,30.33,10.0,East,8.1,-,N/A,,Clear,80,2013-01-19 18:50:00
2:55 PM,57.2,48.2,72,30.31,10.0,ENE,8.1,-,N/A,,Clear,70,2013-01-19 19:55:00
3:50 PM,57.2,48.2,72,30.30,10.0,ENE,6.9,-,N/A,,Clear,60,2013-01-19 20:50:00
4:50 PM,55.4,50.0,82,30.29,10.0,ENE,5.8,-,N/A,,Clear,60,2013-01-19 21:50:00
6:50 PM,51.8,50.0,94,30.29,10.0,NNE,3.5,-,N/A,,Clear,30,2013-01-19 23:50:00
7:50 PM,48.2,46.4,93,30.29,10.0,Calm,Calm,-,N/A,,Clear,0,2013-01-20 00:50:00
8:15 PM,48.2,48.2,100,30.29,9.0,Calm,Calm,-,0.00,,Clear,0,2013-01-20 01:15:00
8:35 PM,48.2,48.2,100,30.29,9.0,Calm,Calm,-,0.00,,Clear,0,2013-01-20 01:35:00
8:55 PM,48.2,48.2,100,30.28,8.0,Calm,Calm,-,0.00,,Clear,0,2013-01-20 01:55:00
9:15 PM,48.2,48.2,100,30.28,9.0,Calm,Calm,-,0.00,,Clear,0,2013-01-20 02:15:00
9:35 PM,46.4,46.4,100,30.28,7.0,Calm,Calm,-,0.00,,Clear,0,2013-01-20 02:35:00
9:55 PM,46.4,46.4,100,30.28,8.0,Calm,Calm,-,0.00,,Clear,0,2013-01-20 02:55:00
10:15 PM,48.2,48.2,100,30.27,10.0,Calm,Calm,-,0.00,,Clear,0,2013-01-20 03:15:00
10:35 PM,48.2,48.2,100,30.27,8.0,Calm,Calm,-,0.00,,Clear,0,2013-01-20 03:35:00
10:55 PM,48.2,48.2,100,30.26,7.0,Calm,Calm,-,0.00,,Clear,0,2013-01-20 03:55:00
11:15 PM,46.4,46.4,100,30.26,5.0,Calm,Calm,-,0.00,,Clear,0,2013-01-20 04:15:00
11:35 PM,46.4,46.4,100,30.26,5.0,Calm,Calm,-,0.00,,Clear,0,2013-01-20 04:35:00
11:55 PM,46.4,46.4,100,30.24,5.0,Calm,Calm,-,0.00,,Clear,0,2013-01-20 04:55:00